Regional Weather Roundup
Issued by NWS Huntsville, AL

Home | Current Version | Previous Version | Text Only | Print | Product List | Glossary On
Versions: 1 2 3 4 5 6 7 8 9 10 11 12 13 14 15 16 17 18 19 20 21 22 23 24 25 26 27
000
ASUS44 KHUN 292110
RWRHUN

WEATHER ROUNDUP FOR THE TENNESSEE VALLEY
NATIONAL WEATHER SERVICE HUNTSVILLE AL
400 PM CDT MON AUG 29 2016

ALZ001>004-292200-
NORTHWEST ALABAMA

CITY           SKY/WX    TMP DP  RH WIND       PRES   REMARKS
SHOALS AIRPORT SUNNY     94  68  42 VRB6      30.07F HX  98
$$

ALZ005>007-016-292200-
NORTH CENTRAL ALABAMA

CITY           SKY/WX    TMP DP  RH WIND       PRES   REMARKS
DECATUR AP     SUNNY     93  70  46 NE8       30.07F HX  99
HUNTSVILLE AP  MOSUNNY   94  68  42 NE8       30.06F HX  98
MERIDIANVILLE  SUNNY     90  59  35 N7        30.08F
REDSTONE ARSN  MOSUNNY   91  69  49 NE9       30.06F HX  96
VINEMONT AP    FAIR      91  66  43 NE6       30.10F HX  93
$$

ALZ008>010-292200-
NORTHEAST ALABAMA

CITY           SKY/WX    TMP DP  RH WIND       PRES   REMARKS
ALBERTVILLE    SUNNY     91  70  49 E7        30.07F HX  97
FORT PAYNE     SUNNY     90  61  37 NE7       30.07F
SCOTTSBORO AP  SUNNY     91  63  38 E7        30.07F HX  92
SCOTTSBORO HCN   N/A     91 N/A N/A MISG        N/A
VALLEY HEAD      N/A     88 N/A N/A MISG        N/A
$$

TNZ076-096-097-292200-
SOUTHEASTERN MIDDLE TENNESSEE

CITY           SKY/WX    TMP DP  RH WIND       PRES   REMARKS
TULLAHOMA      MOSUNNY   88  66  48 N10       30.12F HX  90
WINCHESTER     MOSUNNY   90  70  51 N7        30.10F HX  95
$$

...SURROUNDING SITES...

CITY           SKY/WX    TMP DP  RH WIND       PRES   REMARKS
ATLANTA        MOSUNNY   89  69  51 E13       30.07F HX  93
ANNISTON       MOSUNNY   92  65  40 VRB6      30.03F HX  94
BIRMINGHAM     MOSUNNY   94  63  35 NE6       30.05F HX  95
CHATTANOOGA    MOSUNNY   92  64  39 N9        30.08F HX  93
DALTON         SUNNY     91  63  38 N7        30.06F HX  92
GADSDEN        SUNNY     93  69  45 NE8       30.05F HX  98
GOLDEN TRNGL   NOT AVBL
JACKSON TN     MOSUNNY   91  74  57 E6        30.07F HX 100
MEMPHIS        PTSUNNY   92  71  50 NE10      30.04F HX  98
NASHVILLE      MOSUNNY   91  69  48 NE8G16    30.10F HX  96
OXFORD MS      FAIR      91  68  46 E7        30.05F HX  95
ROME           MOSUNNY   91  68  46 NE8       30.05F HX  95
SAVANNAH       HAZE      79  72  78 NW14G30   30.06S VSB 1/2
TUPELO           N/A     69  69 100 MISG      30.02
TUSCALOOSA     MOSUNNY   95  68  41 NE13G18   30.00F HX  99
$$

...GULF COAST WEATHER...

CITY           SKY/WX    TMP DP  RH WIND       PRES   REMARKS
GULFPORT       SUNNY     90  77  65 SE17      29.93F HX 103
PASCAGOULA     SUNNY     92  71  50 E8        29.94F HX  98
MOBILE         SUNNY     92  71  50 E12       29.96F HX  98
GULF SHORES    CLEAR     90  73  58 SE12      29.94F HX  98
PENSACOLA      PTSUNNY   90  73  57 SE12      29.94F HX  98
DESTIN         SUNNY     94  72  48 NE7       29.94F HX 102
PANAMA CITY    SUNNY     93  71  48 NE7       29.93F HX  99
APPALACHICOLA  PTSUNNY   88  77  69 VRB3      29.93S HX 100
$$





USA.gov is the U.S. government's official web portal to all federal, state and local government web resources and services.